Home > Weather > Saanich > Past weeks

Flag for Canada Past Weather in Saanich, British Columbia, Canada — Yesterday and Last 2 Weeks

Now
59 °F

Mostly cloudy.


Feels Like: 57 °F
Forecast: 55 / 64 °F
Wind: 9 mph from West

Location: Victoria Int. Airportb. C.

Current Time: Jun 25, 2016 at 9:02:33 AM

Latest Report: Jun 25, 2016 at 8:00 AM


Visibility: 30 mi

Pressure: 30.27 "Hg

Humidity: 72%

Dew Point: 50 °F

Location of SaanichLocation

Past Weather in Saanich — Graph

°F

Saanich Temperature Yesterday

Maximum temperature yesterday: 66 °F (at 3:50 PM)
Minimum temperature yesterday: 54 °F (at 4:00 AM)
Average temperature yesterday: 60 °F

High & Low Weather Summary for the Past Weeks

 TemperatureHumidityPressure
High70 °F (Jun 17, 3:00 PM)100% (Jun 23, 12:00 AM)30.40 "Hg (Jun 23, 12:00 AM)
Low46 °F (Jun 16, 2:00 AM)35% (Jun 17, 6:00 PM)29.87 "Hg (Jun 14, 4:00 AM)
Average57 °F70%30.09 "Hg
* Reported Jun 10 7:00 AM — Jun 25 7:00 AM, Saanich, Weather by CustomWeather, © 2016

Note: Actual official high and low records may vary slightly from our data, if they occured in-between our weather recording intervals... More about our weather records

Advertising

Saanich Weather History for the Previous 24 Hours

Scroll right to see more
 ConditionsComfort  
Time TempWeatherWind HumidityBarometerVisibility
7:00 AM
Sat, Jun 25
57 °FMostly cloudy.9 mph77%30.27 "Hg30 mi
6:00 AM57 °FPassing clouds.10 mph77%30.27 "Hg30 mi
5:00 AM57 °FPassing clouds.8 mph77%30.26 "Hg30 mi
4:00 AM57 °FPassing clouds.9 mph77%30.26 "Hg30 mi
3:00 AM57 °FOvercast.10 mph72%30.26 "Hg30 mi
2:00 AM57 °FOvercast.10 mph77%30.26 "Hg30 mi
1:00 AM59 °FOvercast.10 mph72%30.26 "Hg30 mi
12:00 AM59 °FOvercast.14 mph68%30.25 "Hg30 mi
11:00 PM
Fri, Jun 24
59 °FOvercast.15 mph68%30.24 "Hg30 mi
10:00 PM59 °FPartly sunny.13 mph68%30.24 "Hg30 mi
9:00 PM61 °FPartly sunny.15 mph63%30.23 "Hg30 mi
8:00 PM63 °FPartly sunny.5 mph64%30.22 "Hg30 mi
7:00 PM64 °FPartly sunny.14 mph60%30.21 "Hg30 mi
6:00 PM66 °FPartly sunny.12 mph56%30.20 "Hg30 mi
5:00 PM66 °FPartly sunny.9 mph56%30.20 "Hg30 mi
4:00 PM64 °FPartly sunny.5 mph68%30.20 "Hg30 mi
3:50 PM66 °FPartly sunny.6 mph64%30.20 "Hg30 mi
3:00 PM64 °FPartly sunny.2 mph64%30.19 "Hg30 mi
2:00 PM61 °FPartly sunny.8 mph72%30.18 "Hg30 mi
1:00 PM61 °FPartly sunny.6 mph72%30.16 "Hg30 mi
12:00 PM61 °FBroken clouds.9 mph72%30.16 "Hg30 mi
11:00 AM59 °FPartly sunny.12 mph77%30.14 "Hg30 mi
10:00 AM61 °FPartly sunny.14 mph72%30.14 "Hg30 mi
9:00 AM61 °FScattered clouds.8 mph72%30.12 "Hg30 mi
Weather by CustomWeather, © 2016

See weather overviewHow to use our weather pages